www.pogodaiklimat.ru
ПОГОДА в Стропкове

Архив погоды в Стропкове (Словакия)

Время
(UTC), дата
22 19.05
23 19.05
00 20.05
01 20.05
02 20.05
03 20.05
04 20.05
05 20.05
06 20.05
07 20.05
08 20.05
09 20.05
10 20.05
11 20.05
12 20.05
13 20.05
14 20.05
15 20.05
16 20.05
17 20.05
18 20.05
19 20.05
20 20.05
21 20.05
22 20.05
23 20.05
00 21.05
01 21.05
02 21.05
03 21.05
04 21.05
05 21.05
06 21.05
07 21.05
08 21.05
09 21.05
10 21.05
11 21.05
12 21.05
13 21.05
14 21.05
15 21.05
16 21.05
17 21.05
18 21.05
19 21.05
20 21.05
21 21.05
22 21.05
23 21.05
00 22.05
01 22.05
02 22.05
03 22.05
04 22.05
05 22.05
06 22.05
07 22.05
08 22.05
09 22.05
10 22.05
11 22.05
12 22.05
13 22.05
14 22.05
15 22.05
16 22.05
17 22.05
18 22.05
19 22.05
20 22.05
21 22.05
22 22.05
23 22.05
00 23.05
01 23.05
02 23.05
03 23.05
04 23.05
05 23.05
06 23.05
07 23.05
08 23.05
09 23.05
10 23.05
11 23.05
12 23.05
13 23.05
14 23.05
15 23.05
16 23.05
17 23.05
18 23.05
19 23.05
20 23.05
21 23.05
22 23.05
23 23.05
00 24.05
01 24.05
02 24.05
03 24.05
04 24.05
05 24.05
06 24.05
07 24.05
08 24.05
09 24.05
10 24.05
11 24.05
12 24.05
13 24.05
14 24.05
15 24.05
16 24.05
17 24.05
18 24.05
19 24.05
20 24.05
21 24.05
22 24.05
23 24.05
00 25.05
01 25.05
02 25.05
03 25.05
04 25.05
05 25.05
06 25.05
07 25.05
08 25.05
09 25.05
10 25.05
11 25.05
12 25.05
13 25.05
14 25.05
15 25.05
16 25.05
17 25.05
18 25.05
19 25.05
20 25.05
21 25.05
22 25.05
23 25.05
00 26.05
01 26.05
02 26.05
03 26.05
04 26.05
05 26.05
06 26.05
07 26.05
08 26.05
09 26.05
10 26.05
11 26.05
12 26.05
13 26.05
14 26.05
15 26.05
16 26.05
17 26.05
18 26.05
19 26.05
20 26.05
21 26.05
22 26.05
23 26.05
Ветер
(напр.,м/с)
Видим. Явления Облачность Т
(С)
Тd
(С)
f
(%)
Тe
(С)
Тes
(С)
Комфортность P
(гПа)
Po
(гПа)
Тmin
(С)
Tmax
(С)
R
(мм)
R24
(мм)
S
(см)
1 н/о н/о +9.7 +5.5 75 +9 +9 1025.0 998.6
1 н/о н/о +8.3 +5.6 83 +8 +8 1025.0 998.5
С 2 н/о н/о +6.8 +5.0 88 +5 +5 1025.1 998.5
штиль 0 н/о н/о +6.1 +4.7 91 +5 +5 1025.0 998.3
1 н/о н/о +5.2 +4.3 94 +4 +4 1025.0 998.2
С 1 н/о н/о +4.7 +4.1 96 +3 +3 1024.9 998.1
1 н/о н/о +5.6 +4.9 95 +4 +4 1025.1 998.4
1 н/о н/о +8.5 +5.6 82 +8 +8 1025.2 998.7
С 1 30 км 3/0
[Ci fib]
+13.2 +4.9 57 +14 +20 1024.7 998.7 +4.5
Ю 2 40 км 4/0
[Ac lent Ci fib]
+16.7 +5.4 47 +17 +25 1024.2 998.5
Ю 3 50 км 3/0
[Ac lent Ci fib]
+19.2 +7.0 45 +20 +29 1023.2 997.8
Ю 3 50 км 4/0
[Ac lent Ci fib]
+20.7 +6.6 40 +22 +31 комфорт 1022.7 997.4
Ю 3 50 км 5/0
[Ac lent Ci sp]
+22.6 +8.4 40 +24 +34 комфорт 1022.0 996.9
ЮВ 3 50 км 8/0
[Ac und Ci sp]
+21.8 +8.4 42 +23 +31 комфорт 1021.4 996.2
ЮВ 2 50 км 6/0
[Ac trans Ci fib]
+22.9 +9.3 42 +24 +34 комфорт 1020.7 995.6
Ю 3 50 км 4/0
[Ac lent Ci fib]
+25.4 +7.1 31 +25 +33 комфорт 1019.8 995.0
ЮВ 3 50 км 3/0
[Ac lent Ci fib]
+25.9 +8.9 34 +26 +33 жарко 1018.7 993.9
ЮВ 3 50 км 4/3 1500 м
[Cu med, cong Ac lent Ci fib]
+25.9 +9.3 35 +26 +30 жарко 1018.0 993.3
ЮВ 3 50 км 4/3 1500 м
[Cu med, cong Ac lent Ci fib]
+25.1 +9.0 36 +26 +27 жарко 1017.5 992.7
Ю 2 50 км 6/3 1500 м
[Sc diur, vesp Ci]
+23.4 +9.4 41 +25 +26 комфорт 1017.2 992.3
ЮВ 1 50 км 5/3 1500 м
[Sc diur, vesp Ci sp]
+21.1 +9.1 46 +22 +22 комфорт 1017.1 992.0 +26.2
1 45 км 5/1 1500 м
[Sc diur, vesp Ac lent Ci sp]
+18.5 +10.1 58 +20 +20 1017.2 991.9
1 45 км 4/0
[Ac lent Ci sp]
+16.1 +10.0 67 +17 +17 1017.0 991.5
ЮВ 1 н/о н/о +14.5 +9.9 74 +15 +15 1016.4 990.7
С 2 н/о н/о +12.7 +9.7 82 +12 +12 1016.3 990.5
С 2 н/о н/о +11.8 +9.7 87 +11 +11 1016.5 990.6
ЮВ 1 н/о н/о +11.2 +9.0 86 +11 +11 1015.2 989.3
1 н/о н/о +11.1 +9.7 91 +11 +11 1015.4 989.5
нст 1 н/о н/о +11.3 +10.0 92 +11 +11 1014.6 988.7
ЮВ 1 н/о н/о +11.5 +10.7 95 +11 +11 1014.2 988.3
1 н/о н/о +12.3 +10.9 91 +12 +12 1014.2 988.4
1 н/о н/о +13.4 +11.8 90 +14 +14 1014.3 988.6
ЮЗ 1 40 км {дождь} 9/4 1500 м
[Sc Cs]
+15.1 +9.9 71 +16 +19 1013.8 988.2 +10.7 1 1.3
Ю 2 45 км 8/0
[Ac lent Ci sp]
+17.2 +11.3 68 +18 +23 1012.8 987.5
Ю 2 50 км 8/1 1200 м
[Cu med, cong Ac lent Ci sp]
+19.2 +11.0 59 +21 +28 комфорт 1012.7 987.5
ЮЗ 1 45 км в посл. час ливневой дождь 8/4 1200 м
[Cu Sc Ac lent Ci sp]
+19.6 +11.6 60 +22 +29 комфорт 1012.9 987.8
1 50 км 6/3 1200 м
[Cu med, cong Ci sp]
+21.9 +13.0 57 +25 +37 комфорт 1012.2 987.3
1 50 км 5/4 1300 м
[Cu med, cong Ac lent Ci sp]
+23.9 +14.3 55 +26 +38 жарко 1011.5 986.8
С 5 50 км {ливн. дождь} 4/4 1380 м
[Cu med, cong Ci sp]
+24.1 +12.4 48 +26 +31 жарко 1011.3 986.6 0.0
С 8 50 км 3/3 1500 м
[Cu med, cong Ac lent Ci fib]
+24.1 +7.3 34 +24 +26 комфорт 1011.4 986.7
С 6 50 км 4/1 1500 м
[Cu med, cong Ac cuf]
+23.8 +7.5 35 +24 +27 комфорт 1011.5 986.7
С 9 50 км 3/1 1500 м
[Cu med, cong Ac lent Ci fib]
+23.1 +6.8 35 +24 +24 комфорт 1011.5 986.7
С 6 50 км 3/1 1500 м
[Cu med, cong Ac lent Ci fib]
+22.3 +6.5 36 +23 +24 комфорт 1011.7 986.8
С 5 50 км 3/1 1500 м
[Sc diur, vesp Ac lent Ci fib]
+19.9 +5.9 40 +20 +21 1012.5 987.4
С 3 50 км 6/4 1500 м
[Sc diur, vesp Ac lent Ci fib]
+18.1 +5.7 44 +18 +18 1013.2 987.9 +24.7 0.0
С 5 50 км 9/6 1500 м
[Sc diur, vesp Ac cuf Ci sp]
+17.2 +6.4 49 +17 +17 1014.2 988.8
СЗ 1 50 км 9/4 1500 м
[Sc diur, vesp Ac lent Ci sp]
+15.5 +8.3 62 +16 +16 1014.4 988.9
С 1 н/о н/о +13.6 +7.8 68 +14 +14 1014.7 989.0
1 н/о н/о +11.4 +7.1 75 +11 +11 1014.8 988.9
С 2 н/о н/о +11.0 +6.8 75 +10 +10 1014.9 988.9
С 2 н/о н/о +10.5 +6.3 75 +9 +9 1014.5 988.5
1 н/о н/о +9.0 +6.6 85 +8 +8 1014.7 988.6
С 2 н/о н/о +10.4 +6.6 77 +9 +9 1014.7 988.7
С 1 н/о н/о +11.8 +6.1 68 +12 +12 1014.5 988.6
2 н/о н/о +12.7 +6.5 66 +12 +12 1014.5 988.7
С 2 н/о н/о +13.0 +7.2 68 +12 +12 1014.3 988.5
СЗ 2 50 км 4/4 1080 м
[Cu med, cong]
+15.2 +6.5 56 +15 +18 1013.7 988.1 +8.5 0.0
СЗ 4 50 км 4/4 1080 м
[Cu med, cong Cc]
+16.1 +5.7 50 +15 +19 1013.2 987.7
СЗ 3 50 км 6/4 1080 м
[Cu med, cong Cc]
+16.4 +4.5 45 +16 +22 1013.0 987.6
СЗ 4 50 км 8/3 1200 м
[Cu med, cong Cc]
+18.3 +3.8 38 +18 +25 1012.8 987.5
С 3 50 км 8/4 1300 м
[Cu med, cong Cs]
+18.5 +5.4 42 +19 +26 1012.4 987.2
С 4 50 км 8/5 1380 м
[Cu med, cong Cs]
+17.7 +4.3 41 +17 +23 1013.9 986.9
С 4 50 км 8/5 1500 м
[Cu med, cong Ci sp]
+20.1 +5.4 38 +21 +26 комфорт 1011.8 986.7
СЗ 3 60 км 6/6 1500 м
[Cu Sc]
+19.1 +2.9 34 +20 +24 1011.7 986.5
С 6 60 км 8/8 1500 м
[Cu Sc Ci fib]
+17.7 +4.0 40 +17 +18 1012.0 986.7
СЗ 3 60 км 8/6 1500 м
[Cu Sc Ci fib]
+16.9 +4.3 43 +17 +19 1012.3 986.9
С 3 60 км 8/1 1500 м
[Cu med, cong Ac lent Ci sp]
+16.4 +6.5 52 +16 +17 1012.1 986.7
С 3 60 км 8/5 1500 м
[Cu Sc Ac trans Ci fib]
+15.3 +5.5 52 +15 +15 1012.5 987.0
С 4 60 км 8/6 1500 м
[Cu Sc Ac trans Ci fib]
+14.6 +4.0 49 +14 +14 1012.7 987.1 +20.3
С 2 60 км 8/8 1500 м
[Cu Sc]
+13.8 +5.2 56 +13 +13 1013.1 987.4
С 2 60 км 5/5 2000 м
[Sc]
+11.3 +6.2 71 +10 +10 1013.4 987.5
С 1 н/о н/о +11.6 +7.5 76 +12 +12 1013.6 987.7
1 н/о н/о +11.2 +6.4 72 +11 +11 1013.5 987.6
1 н/о н/о +9.6 +6.7 82 +9 +9 1013.6 987.5
С 1 н/о н/о +9.7 +7.1 84 +9 +9 1013.4 987.4
1 н/о н/о +7.8 +6.3 90 +7 +7 1013.7 987.5
1 н/о н/о +6.9 +5.7 92 +6 +6 1014.0 987.7
штиль 0 н/о н/о +6.4 +5.5 94 +5 +5 1014.1 987.7
1 н/о н/о +6.4 +5.5 94 +5 +5 1014.0 987.6
штиль 0 н/о н/о +10.8 +7.5 80 +10 +10 1013.4 987.5
С 3 50 км 1/1 700 м
[Cu hum]
+13.8 +6.2 60 +13 +17 1013.0 987.3 +6.1
С 3 50 км 4/4 700 м
[Cu Sc]
+13.2 +4.1 54 +12 +17 1013.3 987.6
С 3 50 км 9/9 700 м
[Cu Sc]
+13.3 +6.6 64 +12 +13 1013.8 988.1
С 2 50 км 8/8 700 м
[Cu Sc]
+13.6 +6.9 64 +13 +16 1013.8 988.1
С 4 50 км 8/8 800 м
[Cu Sc]
+14.7 +6.0 56 +14 +16 1013.2 987.6
С 4 50 км 9/9 1000 м
[Sc]
+14.9 +7.2 60 +14 +15 1013.3 987.7
С 3 50 км 10/10 1000 м
[Sc]
+15.0 +7.3 60 +14 +14 1013.3 987.7
С 3 50 км 10/10 1000 м
[Sc]
+15.0 +7.3 60 +14 +14 1013.3 987.7
С 3 50 км 8/8 800 м
[Cu Sc]
+16.1 +8.1 59 +16 +17 1013.0 987.5
СВ 3 50 км 4/4 900 м
[Cu Sc]
+17.2 +7.6 53 +17 +20 1012.4 987.1
С 2 50 км 4/1 1000 м
[Sc diur, vesp Ci fib]
+16.5 +6.6 52 +17 +19 1012.1 986.7
С 1 50 км 3/1 1000 м
[Sc diur, vesp Ci fib]
+15.0 +7.1 59 +16 +17 1012.0 986.5
СВ 1 50 км 3/0
[Ci fib]
+12.5 +7.8 73 +13 +13 1012.2 986.4 +17.3
1 50 км 3/0
[Ci fib]
+10.2 +7.1 81 +10 +10 1012.6 986.6
С 2 50 км 3/0
[Ci fib]
+8.5 +6.6 88 +7 +7 1012.8 986.7
СВ 1 н/о н/о +7.1 +5.7 91 +6 +6 1013.2 986.9
штиль 0 н/о н/о +6.4 +5.5 94 +5 +5 1013.4 987.0
2 н/о н/о +5.7 +5.0 95 +3 +3 1013.2 986.8
штиль 0 н/о н/о +4.8 +4.2 96 +4 +4 1013.1 986.6
штиль 0 н/о н/о +4.3 +3.9 97 +3 +3 1013.2 986.6
1 н/о н/о +3.8 +3.4 97 +2 +2 1012.7 986.1
штиль 1 н/о н/о +3.4 +3.0 97 +2 +2 1012.8 986.2
штиль 0 н/о н/о +4.0 +3.6 97 +3 +3 1012.9 986.3
штиль 0 н/о н/о +7.2 +5.7 90 +6 +6 1012.9 986.6
штиль 0 45 км 3/0
[Ac lent Ci fib]
+10.8 +6.4 74 +10 +17 1012.4 986.5 +3.3
1 50 км 9/3 1000 м
[Sc Ac und Ci fib]
+12.7 +7.6 71 +13 +17 1012.3 986.6
1 50 км 9/3 1080 м
[Sc Ac und]
+15.6 +8.8 64 +16 +21 1011.8 986.3
Ю 2 50 км 8/1 1200 м
[Sc Ac trans]
+18.1 +8.1 52 +19 +26 1011.3 986.1
ЮВ 2 55 км 5/0
[Ac trans Ci fib]
+20.7 +9.3 48 +23 +36 комфорт 1010.9 985.9
ЮВ 2 55 км 5/0
[Ac lent Ci sp]
+21.3 +8.6 44 +22 +37 комфорт 1010.6 985.6
Ю 2 55 км 8/4 1000 м
[Cu Sc Ac trans Ci sp]
+21.4 +8.3 43 +23 +29 комфорт 1010.6 985.7
ЮВ 2 55 км 3/1 1000 м
[Cu hum Ac lent Ci fib]
+22.4 +9.2 43 +24 +34 комфорт 1010.0 985.2
Ю 3 55 км 3/1 1080 м
[Cu hum Ac lent Ci fib]
+23.3 +9.7 42 +25 +31 комфорт 1009.6 984.9
Ю 2 50 км 3/1 1200 м
[Sc diur, vesp Ac lent Ci fib]
+23.5 +8.8 39 +24 +29 комфорт 1009.6 984.9
Ю 2 50 км 3/0
[Ac lent Ci fib]
+21.4 +8.3 43 +23 +25 комфорт 1009.8 984.9
Ю 2 50 км 6/5 1300 м
[Sc Ac lent Ci fib]
+20.9 +8.9 46 +23 +23 комфорт 1010.0 985.0
Ю 1 50 км 9/8 1300 м
[Sc Ac lent Ci fib]
+19.1 +9.6 54 +21 +21 комфорт 1010.4 985.3 +23.8
штиль 0 45 км 9/9 1300 м
[Sc]
+17.3 +9.7 61 +17 +17 1011.2 985.9
штиль 0 45 км 10/10 1300 м
[Sc]
+15.7 +10.7 72 +16 +16 1011.9 986.5
Ю 1 н/о н/о +14.9 +10.9 77 +15 +15 1012.4 986.9
1 н/о н/о +14.1 +10.9 81 +14 +14 1012.6 987.0
1 н/о н/о +12.7 +10.2 85 +13 +13 1012.7 987.0
нст 1 н/о н/о +11.5 +10.1 91 +11 +11 1012.9 987.1
штиль 0 н/о н/о +10.8 +9.9 94 +10 +10 1013.3 987.4
1 н/о н/о +10.3 +9.4 94 +10 +10 1013.5 987.5
нст 1 н/о н/о +9.9 +9.3 96 +9 +9 1014.0 988.0
штиль 0 н/о н/о +10.5 +9.7 95 +10 +10 1014.3 988.3
штиль 0 н/о н/о +11.7 +9.8 88 +11 +11 1014.0 988.1
нст 1 35 км 9/0
[Ac As]
+12.8 +10.3 85 +13 +15 1014.4 988.6 +9.8
1 50 км 6/1 2000 м
[Sc Ac As Ci fib]
+16.4 +11.6 73 +17 +24 1013.7 988.3
Ю 2 50 км 4/0
[Ci sp]
+20.5 +10.6 53 +23 +35 комфорт 1013.1 988.0
Ю 2 50 км 6/0
[Ac trans]
+22.5 +11.0 48 +25 +35 комфорт 1012.7 987.8
ЮВ 2 50 км 9/0
[Ac As]
+22.7 +10.2 45 +25 +31 комфорт 1012.4 987.5
Ю 4 50 км 6/1 1300 м
[Cu Sc Ac trans Ci sp]
+24.2 +11.6 45 +26 +33 жарко 1011.8 987.1
Ю 3 40 км 9/4 1300 м
[Cb cap Ci sp]
+22.8 +9.9 44 +25 +31 комфорт 1012.0 987.2
Ю 2 20 км слаб. дождь 9/5 1500 м
[Sc Ac As]
+18.2 +14.7 80 +19 +22 1013.0 987.8
Ю 2 40 км в посл. час дождь 6/6 1500 м
[Sc]
+20.1 +15.8 76 +23 +27 комфорт 1012.6 987.6
штиль 0 40 км {дождь} 8/6 1500 м
[Sc Ac As]
+19.5 +14.3 72 +21 +23 комфорт 1012.7 987.6
1 40 км в посл. час дождь 9/9 1300 м
[Sc]
+19.0 +15.7 81 +21 +22 комфорт 1013.1 988.0
С 3 20 км слаб. дождь 10/10 500 м
[Sc]
+15.6 +12.9 84 +15 +15 1014.7 989.2
С 3 6000 м слаб. дождь 10/10 630 м
[Sc]
+14.0 +11.5 85 +13 +13 1015.8 990.1 +24.9 2
С 2 3500 м слаб. дождь 10/10 600 м
[Sc]
+12.8 +12.0 95 +12 +12 1016.6 990.8
С 3 40 км в посл. час дождь 10/10 1500 м
[Sc]
+12.7 +11.4 92 +11 +11 1016.4 990.6
С 2 н/о н/о +12.5 +11.2 92 +12 +12 1017.4 991.5
1 н/о н/о +12.2 +10.8 91 +12 +12 1017.9 992.0
С 2 н/о н/о +11.6 +10.0 90 +10 +10 1017.6 991.6
С 1 н/о н/о +10.0 +9.1 94 +9 +9 1018.4 992.3 5
1 н/о н/о +9.0 +8.6 97 +8 +8 1019.0 992.8
С 2 н/о н/о +8.1 +7.6 97 +6 +6 1019.4 993.1
С 1 н/о н/о +7.4 +7.0 97 +6 +6 1019.7 993.3
штиль 0 н/о н/о +7.4 +7.1 98 +6 +6 1020.1 993.7
1 н/о н/о +10.2 +8.3 88 +10 +10 1020.2 994.0
С 1 20 км {туман} 1/0
[Ci fib]
+12.5 +9.7 83 +13 +19 1019.9 994.0 +7.0 5 6.5
1 50 км 1/0
[Ci fib]
+16.0 +10.8 71 +17 +27 1019.6 994.0
1 55 км 1/1 800 м
[Cu hum Ci fib]
+18.2 +10.3 60 +20 +33 опасность
простуды
1019.4 994.0
С 1 60 км 3/1 900 м
[Cu med, cong Ci sp]
+20.0 +9.6 51 +22 +38 комфорт 1019.2 993.9
Ю 2 60 км 5/3 1000 м
[Cu med, cong Ac lent Ci sp]
+22.5 +9.0 42 +24 +34 комфорт 1018.4 993.4
Ю 2 60 км 8/6 1000 м
[Cu Sc Ac lent Ci fib]
+20.6 +8.3 45 +23 +28 комфорт 1018.5 993.3
С 1 60 км 6/5 1000 м
[Cu Sc Ac lent Ci fib]
+23.2 +8.5 39 +24 +33 комфорт 1017.9 992.9
Ю 2 60 км 8/6 1080 м
[Cu Sc Ac lent]
+22.0 +8.9 43 +23 +27 комфорт 1017.7 992.6
1 50 км 9/9 1080 м
[Cu Sc]
+21.5 +11.3 52 +23 +25 комфорт 1017.5 992.4
С 1 50 км 9/9 1080 м
[Cu Sc]
+21.9 +12.5 55 +24 +25 комфорт 1017.3 992.3
1 50 км 8/8 1500 м
[Sc]
+21.4 +6.9 39 +22 +23 комфорт 1017.5 992.4
1 50 км 5/5 1500 м
[Sc]
+20.7 +7.7 43 +23 +24 комфорт 1017.6 992.4
штиль 0 50 км 3/3 1500 м
[Sc]
+18.4 +8.4 52 +19 +19 1017.9 992.5 +23.2
СВ 1 45 км 1/1 1500 м
[Sc]
+14.8 +9.8 72 +15 +15 1018.8 993.1
штиль 0 40 км 1/1 1500 м
[Sc]
+13.3 +9.7 79 +13 +13 1019.4 993.5
штиль 1 н/о н/о +11.4 +9.3 87 +11 +11 1019.8 993.8
штиль 0 н/о н/о +10.3 +8.7 90 +10 +10 1020.0 993.9
1 н/о н/о +9.2 +8.3 94 +8 +8 1020.2 994.0
Местоположение метеостанции Стропков (Словакия): широта 49.22 долгота 21.65 высота над уровнем моря 217 м.
В архиве по умолчанию представлена погода в Стропкове за последнюю неделю. Архивные данные за месяц целиком и за предыдущие месяцы, начиная с января 2011 года, Вы можете получить, выбрав интересующий диапазон дат из раскрывающегося списка и нажав кнопку "Найти!".
*Определитесь, кто Вы:
Внимание! Время в таблицах - всемирное. Для получения местного времени необходимо прибавить поправку, которая равна 1 ч.
Смотрите также архив погоды в соседних городах и на ближайших метеорологических станциях:
Партнеры нашего сайта:      
Пояснения к столбцам:
  • Ветер - указаны скорость ветра в м/с - средняя за 10 мин, порывы в срок и между сроками (в фигурных скобках) и направление, откуда дует ветер: С - северный,
  • СВ - северо-восточный, В - восточный, ЮВ - юго-восточный, Ю - южный, ЮЗ - юго-западный, З - западный, СЗ - северо-западный.
  • Видимость - горизонтальная дальность видимости в метрах или километрах. При видимости от 1 до 10 км при отсутствии осадков обычно наблюдается дымка, при ухудшении видимости до 1 км и менее - туман. В сухую погоду видимость может ухудшаться дымом, пылью или мглою.
  • Явления - указаны атмосферные явления, наблюдавшиеся в срок или в последний час перед сроком; фигурными скобками обозначены явления, наблюдавшиеся между сроками (за 1-3 часа до срока); квадратными скобками обозначены град или гололедные отложения с указанием их диаметра в мм.
  • Облачность - указаны через наклонную черту общая и нижняя облачность в баллах и высота нижней границы облаков в метрах; квадратными скобками обозначены формы облаков: Ci - перистые, Cs - перисто-слоистые, Cc - перисто-кучевые, Ac - высококучевые, As - высокослоистые, Sc - слоисто-кучевые, Ns - слоисто-дождевые, Cu - кучевые, Cb - кучево-дождевые. Подробнее классификацию облаков см. в Атласе облаков (PDF).
  • T - Температура воздуха - температура, измеренная на высоте 2 м над землей.
  • Td - Температура точки росы - температура, при понижении до которой содержащийся в воздухе водяной пар достигнет насыщения.
  • f - Относительная влажность воздуха - влажноcть воздуха, измеренная на высоте 2 м над землей.
  • Te - Эффективная температура - температура, которую ощущает одетый по сезону человек в тени. Характеристика душности погоды. При расчете учитывается влияние влажности воздуха и скорости ветра на теплоощущения человека.
  • Tes - Эффективная температура на солнце - температура, которую ощущает человек, с поправкой на солнечный нагрев. Характеристика знойности погоды. Зависит от высоты солнца над горизонтом, облачности и скорости ветра. Ночью, в пасмурную погоду, а также при ветре 12 м/с и более поправка равна нулю.
  • P - Атмосферное давление - приведенное к уровню моря атмосферное давление.
  • Po - Атмосферное давление - измеренное на уровне метеостанции атмосферное давление.
  • Tmin - Минимальная температура - минимум температуры воздуха на высоте 2 м над землей.
  • Tmax - Максимальная температура - максимум температуры воздуха на высоте 2 м над землей.
  • R - Количество осадков - Количество выпавших осадков за период времени, мм. При наведении курсора мыши на число - период времени, за который выпало указанное количество осадков.
  • R24 - Количество осадков - Количество выпавших осадков за 24 часа, мм.
  • S - Снежный покров - Высота снежного покрова, см. При наведении курсора мыши на число - состояние снежного покрова и степень покрытия местности в баллах.